Home > Time Zones > World Clock > Weather > China > Hefei > Past weeks

Flag Weather past 2 weeks in Hefei, Anhui, China

Now
48 °F

Light rain. Fog.


Feels Like: 45 °F
Forecast: 46 / 58 °F
Wind: 8 mph from North

Location: Hefei Airport

Current Time: Nov 25, 2014 at 8:47:20 AM

Latest Report: Nov 25, 2014 at 8:00 AM


Visibility: 0 mi

Pressure: 30.15 "Hg

Humidity: 94%

Dew point: 46 °F

Location of HefeiLocation

Historic Weather in Hefei — Graph

°F

Hefei temperature yesterday

Maximum temperature yesterday: 55 °F (at 12:00 AM)
Minimum temperature yesterday: 50 °F (at 5:00 PM)
Average temperature yesterday: 52 °F

Past Weeks' High & Low Weather Summary

 TemperatureHumidityPressure
High68 °F (Nov 21, 1:00 PM)100% (Nov 15, 11:00 PM)30.51 "Hg (Nov 15, 11:00 PM)
Low36 °F (Nov 18, 7:00 AM)23% (Nov 13, 12:00 PM)30.07 "Hg (Nov 11, 2:00 PM)
Average52 °F73%30.24 "Hg
* Reported Nov 10 7:00 AM — Nov 25 7:00 AM, Hefei, Weather by CustomWeather, © 2014

Note: Actual official high and low records may vary slightly from our data, if they occured in-between our weather recording intervals... More about our weather records

Advertising

Hefei weather history for previous 24 hours

 ConditionsComfort  
Time TempWeatherWind HumidityBarometerVisibility
7:00 AM
Nov 25
48 °FLight rain. Fog.6 mph94%30.15 "Hg1 mi
6:00 AM48 °FLight rain. Fog.6 mph94%30.12 "Hg1 mi
5:00 AM48 °FLight rain. Fog.6 mph94%30.12 "Hg1 mi
4:00 AM48 °FLight rain. Fog.6 mph94%30.12 "Hg1 mi
3:00 AM48 °FLight rain. Fog.6 mph94%30.15 "Hg2 mi
2:00 AM48 °FFog.6 mph94%30.12 "Hg1 mi
1:00 AM48 °FFog.3 mph94%30.15 "Hg1 mi
12:00 AM48 °FLight rain. Fog.6 mph100%30.18 "Hg1 mi
11:00 PM
Nov 24
50 °FLight rain. Fog.6 mph94%30.18 "Hg1 mi
10:00 PM50 °FLight rain. Fog.3 mph94%30.18 "Hg1 mi
9:00 PM50 °FLight rain. Fog.6 mph94%30.21 "Hg1 mi
8:00 PM50 °FLight rain. Fog.6 mph94%30.18 "Hg1 mi
7:00 PM50 °FLight rain. Fog.3 mph94%30.18 "Hg2 mi
6:00 PM50 °FLight rain. Fog.8 mph94%30.18 "Hg2 mi
5:00 PM50 °FLight rain. Fog.13 mph94%30.15 "Hg1 mi
4:00 PM52 °FLight rain. Fog.13 mph94%30.15 "Hg2 mi
3:00 PM52 °FLight rain. Fog.13 mph94%30.12 "Hg2 mi
2:00 PM52 °FLight rain. Fog.10 mph94%30.12 "Hg2 mi
1:00 PM52 °FLight rain. Fog.10 mph100%30.12 "Hg2 mi
12:00 PM52 °FLight rain. Fog.10 mph94%30.12 "Hg2 mi
11:00 AM54 °FLight rain. Fog.10 mph94%30.12 "Hg1 mi
10:00 AM54 °FLight rain. Fog.8 mph94%30.12 "Hg1 mi
9:00 AM54 °FLight rain. Fog.8 mph94%30.12 "Hg1 mi
8:00 AM54 °FLight rain. Fog.8 mph94%30.09 "Hg1 mi
Weather by CustomWeather, © 2014

See weather overviewHow to use our weather pages